|   |  | Asteroid 2008 TA1
					
					
					
					
						
					
					
						
							(Preview) 
						
							
								The 480 - 1100 metre wide asteroid 2008 TA1 will make a close pass (58.2 Lunar Distances, 0.1496 AU), travelling at 14.57 km/s, to the Earth-Moon system on the 13th May 2014 @ 21:43 UT ±00:01. See more  The Lunar Distance (LD), the distance between Earth and the Moon, equals 384,401 km, (or 0.00256 AU).  | Blobrana | 0 |  |  | 
		
			
			
				
				
					|   |  | Asteroid 2014 JS54
					
					
					
					
						
					
					
						
							(Preview) 
						
							
								Orbital elements:
2014 JS54                                           PHA, Earth MOID = 0.0234 AU
Epoch 2014 May 23.0 TT = JDT 2456800.5                  MPC
M  24.86407              (2000.0)            P               Q
n   0.30005451     Peri.  206.44531     +0.15403815     -0.98679534
a   2.2097134      Node   234.73336     +0.91704937     +0.16164840
e   0.9031878      Incl.    3.51599     +0.36782156     +0.01023478
P   3.28           H   21... | Blobrana | 0 |  |  | 
		
			
			
				
				
					|   |  | Asteroid (486) Cremona
					
					
					
					
						
					
					
						
							(Preview) 
						
							
								Asteroid (486) Cremona was discovered by Luigi Carnera on May 11, 1902, in Heidelberg Read more | Blobrana | 0 |  |  | 
		
			
			
				
				
					|   |  | Asteroid (536) Merapi
					
					
					
					
						
					
					
						
							(Preview) 
						
							
								Asteroid (536) Merapi was discovered by George Henry Peters on May 11, 1904 from Washington, D.C. Read more | Blobrana | 0 |  |  | 
		
			
			
				
				
					|   |  | Asteroid 2014 HA124
					
					
					
					
						
					
					
						
							(Preview) 
						
							
								The 13 - 29 metre wide asteroid 2014 HA124 will make a close pass (20.1 lunar distances, 0.0517 AU), travelling at 7.03 km/second, to the Earth-Moon system on the 10th May 2014 @ 04:08 UT ±00:04. See more  The Lunar Distance (LD), the distance between Earth and the Moon, equals 384,401 km, (or 0.00256 AU... | Blobrana | 0 |  |  | 
		
			
			
				
				
					|   |  | Asteroid 2014 JS25
					
					
					
					
						
					
					
						
							(Preview) 
						
							
								The 13 - 30 metre wide asteroid 2014 JS25 made a close pass (10.5 lunar distances, 0.0271 AU), travelling at 7.95 km/second, to the Earth-Moon system on the 9th May 2014 @ 10:16 UT ±00:03. See more  The Lunar Distance (LD), the distance between Earth and the Moon, equals 384,401 km, (or 0.00256 AU). | Blobrana | 0 |  |  | 
		
			
			
				
				
					|   |  | Asteroid 2002 KJ4
					
					
					
					
						
					
					
						
							(Preview) 
						
							
								Orbital elements:
2002 KJ4                                            PHA, Earth MOID = 0.0156 AU
Epoch 2014 May 23.0 TT = JDT 2456800.5                  MPC
M 189.47332              (2000.0)            P               Q
n   0.28922621     Peri.  155.17849     -0.58420524     +0.67345015
a   2.2645276      Node    75.66879     -0.80060149     -0.38659332
e   0.5596984      Incl.   27.87241     -0.13319719     -0.63008769
P   3.41           H   19... | Blobrana | 0 |  |  | 
		
			
			
				
				
					|   |  | Asteroid 2014 JN2
					
					
					
					
						
					
					
						
							(Preview) 
						
							
								The 38 - 84 metre wide asteroid 2014 JN2 will make a close pass (27.0 lunar distances, 0.0694 AU), travelling at 19.79 km/second, to the Earth-Moon system on the 9th May 2014 @ 16:04 UT ±00:01. See more  The Lunar Distance (LD), the distance between Earth and the Moon, equals 384,401 km, (or 0.00256 AU).... | Blobrana | 0 |  |  | 
		
			
			
				
				
					|   |  | Asteroid 2014 JD
					
					
					
					
						
					
					
						
							(Preview) 
						
							
								The 15 - 35 metre wide asteroid 2014 JD will make a close pass (7.7 lunar distances, 0.0197 AU), travelling at 10.46 km/second, to the Earth-Moon system on the 9th May 2014 @ 23:49 UT ±00:01. See more  The Lunar Distance (LD), the distance between Earth and the Moon, equals 384,401 km, (or 0.00256 AU). | Blobrana | 0 |  |  | 
		
			
			
				
				
					|   |  | Asteroid 2014 HE177
					
					
					
					
						
					
					
						
							(Preview) 
						
							
								The 17 - 37 metre wide asteroid 2014 HE177 will make a close pass (19.1 lunar distances, 0.0492 AU), travelling at 5.95 km/second, to the Earth-Moon system on the 8th May 2014 @ 04:49 UT ±00:01. See more  The Lunar Distance (LD), the distance between Earth and the Moon, equals 384,401 km, (or 0.00256 AU)... | Blobrana | 0 |  |  | 
		
			
			
				
				
					|   |  | Asteroid 2014 HT178
					
					
					
					
						
					
					
						
							(Preview) 
						
							
								The 13 - 29 metre wide asteroid 2014 HT178 will make a close pass (5.9 lunar distances, 0.0152 AU), travelling at 14.51 km/second, to the Earth-Moon system on the 8th May 2014 @ 11:30 UT ±00:01. See more  The Lunar Distance (LD), the distance between Earth and the Moon, equals 384,401 km, (or 0.00256 AU)... | Blobrana | 0 |  |  | 
		
			
			
				
				
					|   |  | Asteroid 2014 GC45
					
					
					
					
						
					
					
						
							(Preview) 
						
							
								The 74 - 170 metre wide asteroid 2014 GC45 will make a close pass (72.1 lunar distances, 0.1853 AU), travelling at 6.21 km/second, to the Earth-Moon system on the 8th May 2014 @ 20:34 UT ±00:07. See more  The Lunar Distance (LD), the distance between Earth and the Moon, equals 384,401 km, (or 0.00256 AU)... | Blobrana | 0 |  |  | 
		
			
			
				
				
					|   |  | Asteroid 2014 JR24
					
					
					
					
						
					
					
						
							(Preview) 
						
							
								Orbital elements:
2014 JR24                                                Earth MOID = 0.0007 AU
Epoch 2014 May 23.0 TT = JDT 2456800.5                  MPC
M 317.41751              (2000.0)            P               Q
n   0.89392393     Peri.  246.45554     +0.42935743     +0.90305084
a   1.0672570      Node    48.97709     -0.82254933     +0.39663543
e   0.1191573      Incl.    0.93443     -0.37291392     +0.16486213
P   1.10           H   29.4           G   0... | Blobrana | 1 |  |  | 
		
			
			
				
				
					|   |  | Asteroid 2012 HP13
					
					
					
					
						
					
					
						
							(Preview) 
						
							
								Orbital elements:
2012 HP13                                                Earth MOID = 0.0003 AU
Epoch 2014 May 23.0 TT = JDT 2456800.5                  MPC
M 313.41110              (2000.0)            P               Q
n   1.00594968     Peri.  286.45893     +0.75844915     +0.60755113
a   0.9864730      Node    37.10366     -0.33991017     +0.67754918
e   0.1762620      Incl.   23.01670     -0.55607190     +0.41449817
P   0.98           H   24.2           G... | Blobrana | 0 |  |  | 
		
			
			
				
				
					|   |  | Asteroid (206) Hersilia
					
					
					
					
						
					
					
						
							(Preview) 
						
							
								On 2014 May 07, asteroid (206) Hersilia will occult a 7.5 mag star in the constellation Sagittarius for observers along a path across N Australia, Indonesia. Read more | Blobrana | 0 |  |  |